User: anonymous   Login
Location: Unspecified
(0.0000°N, 0.0000°E)
Time: 04:58:19
(UTC+00:00)
Language:

JASON 3 - Orbit

View from above orbital plane
View from above orbital plane
View from above satellite
View from above satellite

Ground track
Ground track

The orbit data is extracted from the following two-line orbital elements,

1 41240U 16002A   25341.23564757 -.00000042  00000-0  79895-4 0  9993
2 41240  66.0391 169.3962 0007129 270.5070  89.5132 12.87626278462531
Epoch (UTC): 07 December 2025 05:39:19
Eccentricity: 0.0007129
inclination: 66.0391°
perigee height: 1305 km
apogee height: 1316 km
right ascension of ascending node: 169.3962°
argument of perigee: 270.5070°
revolutions per day: 12.87626278
mean anomaly at epoch: 89.5132°
orbit number at epoch: 46253

The dashed part of the orbit path shows where the satellite is in the earth's shadow,  

DLR